Location: Gleizolles
(44.4833°N, 6.7667°E)
Time: 11:15:51
(UTC+00:00)

Envisat - Pass Details

Date: 14 December 2021
Orbit: 764 x 766 km, 98.2° (Epoch: 28 January)

Event Time Altitude Azimuth Distance (km) Brightness Sun altitude
Rises 17:17:09 0° 223° (SW) 3,222 7.4 -14.2°
Reaches altitude 10° 17:21:39 10° 261° (W) 2,304 6.8 -15.0°
Maximum altitude 17:22:46 11° 274° (W) 2,260 6.5 -15.2°
Drops below altitude 10° 17:23:53 10° 286° (WNW) 2,308 6.3 -15.4°
Sets 17:28:27 0° 325° (NW) 3,242 6.5 -16.2°
